Location: Boer
(53.2159°N, 5.5653°E)
Time: 17:06:56
(UTC+00:00)

Daily predictions for brighter satellites

Satellite Brightness Start Highest point End
(mag) Time Altitude Azimuth Time Altitude Azimuth Time Altitude Azimuth
ATLAS CENTAUR R/B 4.2 19:44:16 10° WNW 19:50:30 80° NNE 20:07:41 10° ESE
Cosmos 2219 Rocket 2.6 19:58:44 10° NNW 20:04:13 51° NE 20:09:40 10° SE
Cosmos 2056 Rocket 3.7 20:03:35 10° NNW 20:08:58 79° WSW 20:14:13 10° SSE
ATLAS 5 CENTAUR R/B 2.5 20:05:18 10° NW 20:10:27 64° NE 20:16:38 10° ESE
Spot 2 Rocket 3.8 20:14:38 10° SE 20:19:38 56° ENE 20:24:37 10° N
SPOT 1/Viking Rocket 3.6 20:15:40 10° SSE 20:20:52 82° ENE 20:26:09 10° NNW
USA 245 3.3 20:17:33 10° SSE 20:21:38 62° ENE 20:24:54 10° N
Cosmos 1408 Rocket 4.2 20:18:09 10° SSE 20:22:07 36° E 20:26:06 10° NNE
Cosmos 1092 Rocket 4.2 20:17:02 10° SSW 20:23:20 80° W 20:29:44 10° N
NOSS 2-1 (E) 3.0 20:20:12 10° SSW 20:23:21 49° SE 20:26:47 10° NE
SL-16 R/B 4.3 20:19:54 10° NNW 20:23:53 19° NNE 20:27:53 10° ENE
CZ-2C R/B 4.1 20:20:23 10° NNE 20:24:41 42° E 20:28:54 10° S
SL-16 R/B 3.8 20:20:24 10° NW 20:25:22 32° WSW 20:30:18 10° SSW
Cosmos 2026 Rocket 4.1 20:20:41 10° S 20:26:59 89° W 20:33:14 10° N
GP-B 3.1 20:23:07 10° N 20:27:35 79° E 20:32:02 10° S
IGS 5A 4.3 20:25:24 10° S 20:29:25 50° W 20:33:29 10° NNW
Cosmos 1151 Rocket 3.5 20:25:48 10° NNW 20:30:09 62° W 20:34:28 10° S
NOSS 3-1 (C) 4.2 20:25:22 10° NW 20:32:35 71° SW 20:40:55 11° SSE
CARTOSAT-1 3.6 20:29:16 10° SSE 20:33:32 67° ENE 20:37:51 10° N
Cosmos 1680 Rocket 3.7 20:28:56 10° SSW 20:34:12 79° WNW 20:39:29 10° NNE
Cosmos 2112 Rocket 4.1 20:30:44 10° SSW 20:36:01 87° WNW 20:41:19 10° NNE
Lacrosse 5 3.5 20:33:37 10° SSE 20:36:08 14° ESE 20:38:40 10° E
Cosmos 2333 4.3 20:30:46 10° NNW 20:36:23 80° WSW 20:41:51 11° SSE
Okean 3 Rocket 3.7 20:34:05 10° S 20:38:37 90° N 20:43:11 10° N
ERS-2 2.6 20:36:10 10° N 20:39:47 62° WNW 20:43:23 10° SSW
Meteor 1-10 Rocket 4.2 20:35:32 10° NNW 20:41:07 82° ENE 20:46:41 10° SSE
CZ-4C R/B 3.9 20:39:19 10° NW 20:45:15 39° NNE 20:52:21 10° E
Cosmos 1515 Rocket 3.6 20:43:01 10° N 20:47:28 89° ENE 20:51:44 11° S
COSMOS 2487 3.2 20:45:41 13° SSE 20:48:16 31° ESE 20:51:19 10° NE
GEOS 3 Rocket 3.7 20:43:26 10° NE 20:48:42 87° NW 20:53:51 10° SW
COSMOS 2428 2.8 20:43:16 10° NNW 20:49:00 80° ENE 20:53:52 15° SE
USA 229 DEB 4.0 20:43:38 10° NW 20:50:52 80° SW 20:57:36 14° SE
USA 229 4.0 20:43:44 10° NW 20:50:58 81° SW 20:57:42 14° SE
COSMOS 2455 3.0 20:48:42 10° SSW 20:54:27 50° ESE 21:00:14 10° NE
Cosmos 292 Rocket 4.5 20:50:42 10° NW 20:55:19 49° WSW 20:59:56 10° S
Terra 2.0 20:54:30 15° SSE 20:58:20 60° ENE 21:03:03 10° N
Cosmos 2360 Rocket 3.4 20:53:36 10° NW 20:58:43 36° WSW 21:03:49 10° S
Cosmos 2084 Rocket 3.4 20:55:02 10° NW 20:59:11 83° NE 21:02:26 17° SE
Cosmos 1048 Rocket 4.5 20:59:48 12° S 21:04:11 39° ESE 21:08:55 10° NE
Cosmos 1766 Rocket 4.5 21:01:01 10° SSW 21:05:16 49° WNW 21:09:31 10° N
ATLAS 2AS CENTAUR R/B 4.3 20:58:57 10° W 21:06:16 41° NNW 21:13:14 10° NE
Cosmos 972 Rocket 4.2 21:02:08 10° S 21:07:03 48° ESE 21:11:46 10° NNE
NOSS 2-1 (C) 3.4 21:04:17 10° WSW 21:07:31 63° NW 21:11:06 10° NE
Cosmos 2084 4.3 21:06:38 10° WSW 21:10:39 51° NNW 21:14:48 10° NE
USA 102 4.4 21:08:33 24° ESE 21:11:02 58° NE 21:18:00 10° NNW
NOSS 3-1 (A) 4.2 21:04:09 10° NW 21:11:24 68° SW 21:18:16 17° SSE
Resurs 01 Rocket 3.7 21:07:59 10° SW 21:11:35 24° W 21:15:12 10° NW
Cosmos 1707 Rocket 4.4 21:10:03 10° N 21:14:07 36° ENE 21:16:40 20° SE
Cosmos 1812 4.5 21:11:23 10° NNW 21:14:45 29° W 21:18:07 10° SSW
Okean 1 4.4 21:11:39 10° N 21:15:15 31° ENE 21:17:20 19° ESE
NOSS 2-1 (D) 3.7 21:12:09 10° WSW 21:15:20 55° NW 21:18:55 10° NE
Cosmos 1980 4.0 21:09:47 10° NNW 21:15:24 58° NE 21:19:35 18° SE
Cosmos 2266 Rocket 4.0 21:09:51 10° S 21:16:00 73° E 21:22:19 10° NNE
NOSS 2-2 (D) 4.3 21:12:22 10° NW 21:17:08 70° NE 21:22:28 16° ESE
Cosmos 1862 4.2 21:17:53 10° SSW 21:21:45 49° WNW 21:25:38 10° N
Cosmos 2228 Rocket 3.0 21:19:26 10° N 21:23:54 87° E 21:26:53 21° SSE
ERS-1 Rocket 3.2 21:20:14 15° S 21:24:24 65° WSW 21:29:25 10° NNW
SL-27 R/B 4.2 21:21:22 10° SW 21:24:43 36° WNW 21:28:06 10° N
Cosmos 2285 Rocket 4.2 21:22:01 10° NNW 21:28:16 68° WSW 21:33:03 18° S
Cosmos 2315 Rocket 4.1 21:26:22 10° N 21:32:45 89° W 21:37:37 18° S
Cosmos 2297 Rocket 3.4 21:31:26 20° SE 21:33:16 24° ESE 21:37:40 10° NE
BREEZE-M DEB (TANK) 3.0 21:28:19 10° W 21:33:37 33° SSW 21:34:36 27° S
NOSS 0 Rocket 4.0 21:27:23 10° NW 21:33:39 84° WSW 21:37:53 22° SSE
Cosmos 2333 Rocket 3.2 21:29:02 10° NW 21:34:14 39° WSW 21:38:33 14° S
Cosmos 1805 Rocket 3.6 21:31:35 22° S 21:34:21 61° E 21:38:43 10° NNE
SPOT 5 3.3 21:31:58 16° S 21:35:21 49° W 21:39:48 10° NNW
ARIANE 5 R/B 3.6 21:31:52 13° SSW 21:35:33 41° W 21:39:45 10° NNW
Cosmos 2237 Rocket 2.3 21:31:09 10° NNW 21:36:52 73° NE 21:40:34 23° SE
USA 234 3.6 21:33:51 10° E 21:40:21 69° N 21:46:52 10° WNW
Cosmos 1452 Rocket 4.4 21:35:45 10° NW 21:40:41 42° WSW 21:44:29 16° S
Meteor 1-20 Rocket 4.3 21:40:22 21° S 21:44:10 61° E 21:49:52 10° NNE
Cosmos 1500 Rocket 3.9 21:40:12 12° SSW 21:44:14 67° WNW 21:48:43 10° N
NOSS 2-2 (E) 4.3 21:39:39 10° NW 21:44:43 79° SW 21:49:13 23° SE
Cosmos 2227 Rocket 3.4 21:44:50 20° ESE 21:46:18 23° ESE 21:50:35 10° NE
Cosmos 2219 Rocket 3.2 21:42:58 10° NW 21:48:03 36° WSW 21:51:54 16° SSW
ALOS 2 4.1 21:45:45 16° ESE 21:48:07 26° ENE 21:51:45 10° N
USA 40 PKM 4.5 21:45:33 10° WNW 21:49:17 55° SW 21:50:40 32° SSE
USA 102 3.7 21:50:35 42° SSW 21:51:42 56° WSW 21:59:11 10° NW
ATLAS 5 CENTAUR R/B 3.1 21:49:57 10° WNW 21:55:04 39° SW 21:58:39 21° S
Sich 1 2.9 21:53:28 27° S 21:55:48 77° E 22:00:07 10° NNE
Cosmos 1515 3.6 21:52:04 10° NNW 21:55:52 79° W 21:57:27 33° S
Cosmos 1331 Rocket 4.3 21:51:30 10° NNW 21:56:40 60° WSW 21:59:36 25° S
Cosmos 1110 Rocket 4.5 21:52:52 10° NNW 21:58:04 55° WSW 22:01:08 24° S
Nadezhda 1 Rocket 4.4 21:56:44 10° N 22:03:00 52° ENE 22:06:40 25° SE
Cosmos 44 4.3 22:03:53 10° NW 22:09:05 47° NE 22:13:03 15° ESE
SL-16 R/B 2.7 22:03:46 10° NNW 22:09:21 53° NE 22:12:56 22° ESE
NOSS 2-2 (C) 4.4 22:05:44 10° NW 22:10:43 67° SW 22:14:24 27° SSE
Cosmos 1633 Rocket 3.2 22:10:51 35° SSE 22:12:24 57° E 22:16:41 10° NNE
Cosmos 1470 Rocket 4.3 22:14:08 31° SE 22:15:15 37° E 22:19:16 10° NNE
Cosmos 494 Rocket 4.0 22:11:18 14° SSW 22:15:45 79° WNW 22:20:57 10° NNE
Cosmos 1666 3.6 22:15:50 31° ESE 22:16:26 33° E 22:19:55 10° NNE
Lacrosse 5 1.9 22:13:14 10° SW 22:18:10 52° SE 22:23:06 10° ENE
Cosmos 1666 Rocket 3.5 22:21:09 34° S 22:23:05 85° E 22:27:35 10° NNE
APEX 4.5 22:17:44 12° SSW 22:23:23 88° SE 22:30:21 10° NE
Cosmos 1602 3.9 22:22:55 31° SSW 22:24:36 66° WNW 22:28:26 10° N
SL-08 ROCKET BODY 4.4 22:21:33 27° S 22:25:01 76° E 22:31:13 10° NNE
Cosmos 1340 Rocket 3.7 22:28:39 31° ESE 22:29:09 32° E 22:32:43 10° NNE
COSMOS 2428 4.4 22:28:23 10° NW 22:32:39 22° WSW 22:35:52 14° SW
CZ-4C R/B 3.0 22:27:57 10° NW 22:34:47 77° NE 22:41:11 18° SE
Terra 3.7 22:33:24 13° SW 22:36:29 22° W 22:40:14 10° NW
Meteor 2-4 Rocket 3.8 22:31:59 10° NNW 22:37:57 84° W 22:40:46 33° S
COBE Rocket 4.0 22:36:50 34° SSW 22:38:45 62° W 22:43:31 10° NNW
CZ-3B R/B 3.0 22:31:13 10° WNW 22:38:54 35° SW 22:39:48 31° SSW
COSMOS 2455 3.8 22:34:39 10° WSW 22:40:28 49° NW 22:46:20 10° NE
Cosmos 1992 Rocket 4.0 22:35:44 10° NNW 22:41:00 81° ENE 22:43:16 35° SSE
Timation 2 Rocket 4.4 22:39:27 32° SSE 22:41:31 42° ESE 22:47:18 10° NE
Cosmos 2242 Rocket 3.9 22:38:45 10° N 22:43:08 56° ENE 22:44:34 38° SE
Cosmos 1862 Rocket 3.8 22:39:35 10° NNW 22:43:51 57° W 22:45:19 37° SSW
USA 267 3.9 22:40:56 10° ENE 22:46:45 33° SE 22:48:10 30° SSE
Cosmos 2219 3.2 22:48:18 32° S 22:50:55 65° ESE 22:56:38 10° NE
Meteor 1-5 Rocket 4.3 22:49:36 34° S 22:52:16 73° E 22:58:14 10° NNE
Spot 4 4.1 22:52:09 36° SSW 22:53:57 60° WSW 22:58:47 10° NNW
ATLAS 2AS CENTAUR R/B 4.2 22:51:47 10° NW 22:58:58 41° NNE 23:05:41 10° E
Cosmos 1703 Rocket 3.5 22:55:43 10° N 23:00:07 80° ENE 23:01:20 47° SSE
Cosmos 1500 4.0 22:59:15 32° SW 23:00:37 47° WNW 23:04:22 10° N
Cosmos 2082 4.2 23:01:12 34° SSE 23:02:50 42° ESE 23:08:12 10° NE
Cosmos 1378 3.0 22:59:42 10° N 23:03:26 87° ENE 23:03:58 64° SSE
Cosmos 909 Rocket 4.4 23:02:47 30° S 23:06:17 61° ESE 23:14:15 10° NE
Meteor 1-11 Rocket 4.1 23:05:19 35° SSE 23:07:16 50° E 23:12:38 10° NNE
Okean 1-7 2.9 23:04:13 10° NNW 23:08:31 87° WSW 23:09:33 51° S
Cosmos 2181 Rocket 4.3 23:03:26 10° N 23:09:41 60° ENE 23:12:46 30° SE
Cosmos 1269 Rocket 4.2 23:10:35 27° SW 23:13:32 72° WNW 23:18:51 10° NNE
Cosmos 2297 Rocket 2.3 23:13:12 24° SW 23:16:46 76° WNW 23:22:29 10° NNE
Meteor 2-17 Rocket 4.4 23:15:38 34° S 23:18:28 89° W 23:24:34 10° N
Meteor 1-23 Rocket 4.5 23:13:13 10° N 23:18:56 65° ENE 23:21:35 33° SE
Cosmos 2237 Rocket 3.6 23:15:54 10° NW 23:20:25 25° WSW 23:22:23 21° SW
SL-16 R/B 4.5 23:17:49 10° E 23:22:30 23° NE 23:27:12 10° N
USA 234 3.2 23:18:04 17° SE 23:23:23 76° SSW 23:29:58 10° WNW
ALOS 2 3.1 23:23:09 40° SW 23:24:14 49° W 23:28:31 10° NNW
Cosmos 614 Rocket 4.5 23:23:41 37° SE 23:25:02 45° ESE 23:30:01 10° NE
Meteor 1-13 Rocket 4.3 23:20:53 10° NNW 23:26:37 72° W 23:28:50 38° S
Cosmos 1461 3.3 23:27:18 45° SE 23:27:39 46° SE 23:31:52 10° NE
Cosmos 1709 Rocket 4.0 23:26:19 35° S 23:29:16 84° E 23:35:42 10° NNE
Cosmos 2227 Rocket 2.2 23:26:37 28° SW 23:29:45 79° WNW 23:35:28 10° NNE
SL-24 R/B - RUBIN 2 3.8 23:25:18 10° NW 23:30:34 80° NE 23:32:45 33° SE
Cosmos 2263 Rocket 3.3 23:33:28 26° SE 23:34:56 30° ESE 23:39:50 10° NE
Cosmos 1603 4.0 23:32:28 10° NNW 23:38:04 64° NE 23:41:31 24° SE
Cosmos 1745 Rocket 4.4 23:35:14 26° SW 23:38:45 57° WNW 23:45:01 10° N
PSLV R/B 4.2 23:36:41 10° NNE 23:41:20 50° E 23:42:34 39° SE
Cosmos 1536 2.7 23:40:44 60° S 23:41:27 87° E 23:45:32 10° NNE
MTI 3.9 23:39:11 10° NNE 23:41:49 63° NE 23:41:49 63° NE
Cosmos 1842 4.1 23:39:29 10° N 23:43:12 41° ENE 23:44:12 34° ESE
Okean 3 3.6 23:40:41 10° NNW 23:44:55 64° W 23:45:46 51° SSW
Cosmos 1241 Rocket 4.5 23:44:35 31° SSW 23:47:58 77° SE 23:54:27 10° NE
Cosmos 1869 Rocket 3.5 23:47:06 51° S 23:48:14 89° E 23:52:43 10° NNE
ASTEX 1 4.1 23:46:47 28° SE 23:48:55 46° ENE 23:53:39 10° N
Cosmos 44 3.7 23:45:21 10° NW 23:50:25 48° WSW 23:51:25 42° SSW
Thor Agena Rocket 3.6 23:45:54 10° NNE 23:50:56 65° ESE 23:52:34 41° SSE
Cosmos 1666 4.4 23:50:39 21° WSW 23:52:01 26° WNW 23:55:19 10° N
SL-16 R/B 3.0 23:48:11 10° NW 23:53:18 36° WSW 23:54:47 31° SW
